{"data":{"norad_id":43681,"intl_designator":"2018-084K","name":"AUTCUBE 2","alt_names":[],"object_type":"PAYLOAD","status":"ACTIVE","operator":null,"country":"JPN","launch_date":"2018-10-29","launch_site_code":"TANSC","launch_vehicle":null,"mission":null,"orbit_class":"UNKNOWN","rcs_meters":null,"size_class":null,"mass_kg":null,"dimensions":null,"purposes":[],"wikipedia_slug":null,"has_3d_model":false,"image_url":null,"decayed_at":null,"tle_current":{"epoch":"2026-09-20T00:49:51.505824Z","epoch_age_seconds":95169,"freshness":"FRESH","line1":"1 43681U 18084K   26263.03462391  .00001714  00000+0  10795-3 0  9997","line2":"2 43681  98.0609 114.2385 0010341  82.5128 277.7275 15.10616752431240","mean_motion":15.10616752,"eccentricity":0.0010341,"inclination_deg":98.0609,"raan_deg":114.2385,"arg_perigee_deg":82.5128,"mean_anomaly_deg":277.7275,"bstar":0.00010795,"rev_number":43124,"period_min":95.325303263948,"perigee_km":527.16972299478,"apogee_km":541.46606220366,"semimajor_km":6912.4548925992,"source":"CELESTRAK","updated_at":"2026-09-20T09:00:14.368486Z"}}}